Location: ?p Dangia
(12.0167°N, 108.4333°E)
Time: 10:08:07
(UTC+00:00)

Cosmos 304 Rocket - Pass Details

Date: 07 June 2020
Orbit: 679 x 688 km, 74.0° (Epoch: 03 July)

Event Time Altitude Azimuth Distance (km) Brightness Sun altitude
Rises 11:33:31 0° 180° (S) 3,023 6.8 -6.2°
Reaches altitude 10° 11:35:54 10° 174° (S) 2,109 6.0 -6.7°
Maximum altitude 11:40:26 46° 101° (ESE) 912 4.0 -7.7°
Drops below altitude 10° 11:44:58 10° 29° (NNE) 2,112 6.3 -8.7°
Sets 11:47:20 0° 23° (NNE) 3,027 7.1 -9.2°
